Total_Precipitation_Accumulation
1.85 2.15 2.53 2.88 3.08 3.24 3.34 3.62 3.82 3.50 2.98 2.53 1.99 1.71 1.56 1.36 1.20 1.09 0.97 0.96 0.88 0.91 0.91 0.76 0.83 0.73 0.73 0.76 0.80 0.90 0.93 0.89 0.87 1.16 1.38 1.18 0.93 0.91 0.82 0.81 0.92 0.98 1.00
1.38 1.48 1.70 2.03 2.11 2.33 2.64 2.99 3.22 3.06 2.50 2.22 1.96 1.77 1.62 1.44 1.35 1.25 1.08 0.92 0.86 0.85 0.77 0.88 0.75 0.74 0.81 0.82 0.82 0.90 0.90 0.82 0.79 1.06 1.33 1.22 1.25 1.16 0.66 0.74 0.84 0.91 1.06
1.02 1.01 1.10 1.27 1.57 2.04 2.19 2.23 2.47 2.66 2.39 2.22 2.12 1.97 1.82 1.57 1.49 1.41 1.21 0.92 0.81 0.80 0.80 0.77 0.76 0.88 0.72 0.87 0.99 0.95 0.93 0.90 0.80 0.80 1.02 1.08 1.09 1.02 0.88 0.73 0.71 0.80 0.99
0.69 0.83 0.85 0.90 1.10 1.43 1.70 1.94 2.18 2.33 2.24 2.12 1.89 1.69 1.47 1.31 1.24 1.24 1.25 1.10 0.95 0.83 0.81 0.76 0.81 0.89 0.76 0.98 0.80 0.80 0.91 0.92 0.79 0.73 0.64 0.66 0.80 0.92 0.99 0.87 0.70 0.73 0.82
0.38 0.55 0.67 0.75 0.79 0.98 1.37 1.78 2.09 2.30 2.18 1.88 1.70 1.66 1.53 1.43 1.35 1.27 1.34 1.20 1.10 0.96 0.84 0.83 0.86 0.82 0.76 0.83 0.87 1.01 0.93 0.88 0.82 0.74 0.66 0.69 0.65 0.60 0.71 0.85 0.86 0.83 0.65
0.26 0.35 0.42 0.52 0.66 0.79 1.02 1.29 1.60 1.86 1.88 1.72 1.62 1.61 1.59 1.55 1.41 1.19 1.14 1.06 1.03 1.00 0.96 0.98 0.96 0.87 0.78 0.80 0.83 0.93 0.94 0.99 1.03 0.88 0.73 0.74 0.68 0.61 0.65 0.63 0.64 0.72 0.59
0.21 0.31 0.37 0.35 0.48 0.57 0.66 0.81 1.10 1.33 1.47 1.52 1.52 1.48 1.56 1.56 1.40 1.23 1.13 1.08 0.93 0.89 0.91 0.94 1.01 0.94 0.91 0.88 0.90 0.89 0.87 0.94 0.99 0.88 0.76 0.69 0.59 0.62 0.67 0.70 0.59 0.56 0.47
0.16 0.25 0.34 0.34 0.35 0.39 0.51 0.64 0.85 1.03 1.14 1.21 1.31 1.32 1.31 1.24 1.25 1.30 1.18 1.07 1.01 0.94 0.92 0.94 0.92 0.91 0.92 0.90 1.04 0.88 0.81 0.86 0.85 0.79 0.88 0.81 0.57 0.57 0.66 0.73 0.78 0.76 0.68
0.23 0.24 0.30 0.33 0.26 0.30 0.38 0.45 0.62 0.76 0.86 0.98 1.11 1.13 1.15 1.08 1.09 1.10 1.08 1.01 1.07 1.06 0.98 0.91 0.89 0.92 0.95 0.98 1.04 0.95 0.93 0.95 0.84 0.78 0.87 0.81 0.67 0.61 0.56 0.68 0.83 0.98 0.95
0.30 0.30 0.27 0.32 0.28 0.27 0.33 0.38 0.47 0.60 0.70 0.82 0.90 0.90 1.05 1.05 1.15 1.13 1.04 0.96 0.92 0.92 0.95 0.94 0.87 0.92 0.98 1.05 1.08 1.06 1.12 1.19 1.06 0.94 0.94 0.88 0.79 0.80 0.66 0.64 0.77 0.93 1.04
0.28 0.31 0.30 0.29 0.25 0.24 0.26 0.29 0.40 0.52 0.61 0.72 0.79 0.86 0.91 0.96 1.02 1.06 1.06 1.03 0.98 0.95 0.95 0.93 0.89 0.90 0.94 0.99 1.03 1.02 1.15 1.27 1.31 1.15 1.06 1.01 0.97 0.97 0.86 0.86 0.90 0.94 1.07
0.18 0.22 0.24 0.22 0.19 0.22 0.23 0.24 0.29 0.37 0.45 0.63 0.77 0.81 0.90 0.96 0.95 0.97 1.14 1.15 1.11 1.08 1.08 1.06 1.05 0.99 0.94 0.98 0.97 0.91 0.97 1.14 1.32 1.49 1.52 1.34 1.22 1.17 1.06 1.06 1.04 1.02 1.08
0.20 0.26 0.29 0.27 0.21 0.21 0.24 0.27 0.30 0.36 0.41 0.54 0.67 0.78 0.87 0.95 1.00 1.07 1.19 1.30 1.28 1.27 1.29 1.31 1.26 1.21 1.18 1.14 1.09 1.05 1.03 1.07 1.17 1.37 1.55 1.54 1.56 1.38 1.31 1.24 1.16 1.10 1.05
0.20 0.24 0.36 0.35 0.26 0.22 0.26 0.29 0.34 0.40 0.50 0.66 0.78 0.85 1.00 1.12 1.18 1.16 1.24 1.31 1.39 1.44 1.48 1.51 1.44 1.37 1.32 1.30 1.29 1.27 1.25 1.24 1.26 1.28 1.32 1.42 1.58 1.50 1.44 1.35 1.28 1.24 1.22
0.25 0.31 0.40 0.44 0.40 0.35 0.33 0.37 0.47 0.57 0.74 0.94 1.00 1.01 1.09 1.17 1.25 1.36 1.43 1.54 1.61 1.63 1.74 1.70 1.59 1.54 1.52 1.41 1.47 1.58 1.58 1.59 1.44 1.31 1.24 1.21 1.35 1.43 1.43 1.29 1.25 1.31 1.35
0.33 0.38 0.51 0.56 0.56 0.53 0.53 0.62 0.72 0.88 1.09 1.33 1.41 1.47 1.52 1.53 1.58 1.62 1.68 1.79 1.84 1.84 1.79 1.74 1.73 1.70 1.56 1.68 1.69 1.59 1.60 1.72 1.70 1.57 1.47 1.33 1.24 1.25 1.30 1.34 1.37 1.37 1.36
0.50 0.50 0.62 0.70 0.76 0.74 0.72 0.80 0.91 1.10 1.29 1.40 1.40 1.45 1.53 1.60 1.62 1.67 1.72 1.74 1.77 1.76 1.70 1.74 1.78 1.75 1.78 1.73 1.54 1.40 1.38 1.43 1.50 1.54 1.51 1.31 1.19 1.25 1.21 1.36 1.40 1.33 1.26
0.65 0.64 0.70 0.74 0.75 0.80 0.83 0.90 0.98 1.04 1.24 1.33 1.31 1.29 1.32 1.35 1.41 1.53 1.58 1.57 1.57 1.56 1.53 1.54 1.48 1.44 1.43 1.43 1.26 1.21 1.18 1.18 1.15 1.23 1.32 1.27 1.18 1.15 1.15 1.09 1.01 0.97 0.98
0.60 0.65 0.73 0.72 0.72 0.77 0.83 0.83 0.88 0.94 1.05 1.11 1.13 1.10 1.14 1.21 1.30 1.38 1.43 1.48 1.46 1.34 1.24 1.18 1.19 1.19 1.24 1.34 1.18 1.13 1.11 1.14 1.05 1.03 1.05 1.04 0.96 0.96 0.89 0.84 0.75 0.71 0.72
0.51 0.61 0.74 0.75 0.73 0.75 0.76 0.76 0.80 0.87 0.98 1.09 1.15 1.14 1.15 1.23 1.28 1.33 1.34 1.33 1.30 1.25 1.23 1.16 1.12 1.11 1.13 1.23 1.08 1.03 1.03 1.07 1.04 1.02 1.06 1.12 0.96 0.83 0.67 0.65 0.67 0.60 0.57
0.53 0.59 0.70 0.82 0.81 0.82 0.84 0.87 0.86 0.88 0.95 1.03 1.08 1.09 1.11 1.13 1.17 1.22 1.19 1.23 1.24 1.22 1.16 1.09 1.07 1.10 1.09 1.08 0.94 0.85 0.82 0.86 0.87 0.82 0.83 0.94 0.92 0.74 0.59 0.58 0.60 0.55 0.53
0.42 0.56 0.67 0.76 0.84 0.91 0.99 1.01 0.95 0.92 0.96 1.06 1.10 1.08 1.08 1.07 1.03 1.00 0.99 1.02 1.05 1.03 1.02 1.01 1.01 1.06 1.06 0.94 0.82 0.71 0.66 0.69 0.71 0.81 0.82 0.92 0.94 0.75 0.63 0.54 0.51 0.45 0.39
0.40 0.46 0.56 0.69 0.74 0.85 0.95 1.03 1.04 1.03 1.00 1.03 1.08 1.07 1.06 1.06 1.07 1.08 1.07 1.06 1.05 1.04 1.01 0.96 0.89 0.90 0.94 0.94 0.78 0.62 0.54 0.58 0.64 0.85 1.06 1.08 1.02 0.86 0.71 0.64 0.61 0.49 0.41
0.50 0.54 0.61 0.64 0.65 0.71 0.80 0.91 1.00 1.04 1.08 1.07 1.02 0.98 0.98 0.97 1.00 1.08 1.11 1.11 1.10 1.06 1.00 0.94 0.90 0.90 0.92 0.91 0.85 0.75 0.66 0.67 0.72 0.88 1.07 1.17 1.19 1.09 0.95 0.86 0.77 0.60 0.56
0.59 0.62 0.67 0.66 0.65 0.68 0.74 0.83 0.92 0.95 0.98 1.00 0.99 0.97 0.93 0.91 0.94 0.99 1.02 0.98 0.98 0.98 0.93 0.87 0.86 0.86 0.88 0.88 0.84 0.75 0.69 0.66 0.69 0.81 1.04 1.23 1.36 1.38 1.33 1.20 1.07 0.94 0.83
0.69 0.67 0.70 0.72 0.72 0.76 0.80 0.80 0.87 0.98 1.05 1.04 0.97 0.93 0.88 0.85 0.86 0.87 0.92 0.99 0.89 0.90 0.84 0.80 0.74 0.70 0.73 0.73 0.64 0.58 0.56 0.57 0.62 0.74 0.97 1.20 1.39 1.46 1.55 1.53 1.42 1.23 1.07